Home   Weather   Tulln an der Donau   Past weeks
Flag for Austria

Past Weather in Tulln an der Donau, Lower Austria, Austria — Yesterday and Last 2 Weeks

Now
31 °F

Clear.


Feels Like: 31 °F
Forecast: 34 / 24 °F
Wind: 2 mph from South

Location: Wien / Hohe Warte

Current Time: Jan 24, 2020 at 2:53:43 am

Latest Report: Jan 24, 2020 at 1:00 am


Visibility: 9 mi

Pressure: 30.36 "Hg

Humidity: 87%

Dew Point: 28 °F

Location of Tulln an der DonauLocation

Past Weather in Tulln an der Donau — Graph

°F

Tulln an der Donau Temperature Yesterday

Maximum temperature yesterday: 41 °F (at 2:00 pm)
Minimum temperature yesterday: 32 °F (at 11:00 pm)
Average temperature yesterday: 36 °F

High & Low Weather Summary for the Past Weeks

 TemperatureHumidityPressure
High46 °F (Jan 11, 2:00 pm)100% (Jan 11, 1:00 am)30.95 "Hg (Jan 11, 1:00 am)
Low28 °F (Jan 16, 5:00 am)52% (Jan 11, 2:00 pm)30.16 "Hg (Jan 10, 6:00 am)
Average34 °F88%30.43 "Hg
* Reported Jan 9 1:00 am — Jan 24 1:00 am, Tulln an der Donau. Weather by CustomWeather, © 2020

Note: Actual official high and low records may vary slightly from our data, if they occured in-between our weather recording intervals... More about our weather records

Tulln an der Donau Weather History for the Previous 24 Hours

Scroll right to see more
 ConditionsComfort  
Time TempWeatherWind HumidityBarometerVisibility
1:00 am
Fri, Jan 24
31 °FClear.2 mph87%30.36 "Hg9 mi
12:00 am31 °FChilly.2 mph87%30.39 "HgN/A
11:00 pm
Thu, Jan 23
32 °FChilly.5 mph84%30.40 "HgN/A
10:00 pm33 °FClear.3 mph84%30.42 "Hg12 mi
9:00 pm33 °FClear.3 mph84%30.42 "Hg15 mi
8:00 pm34 °FClear.5 mph81%30.44 "Hg18 mi
7:00 pm35 °FClear.5 mph77%30.45 "Hg19 mi
6:00 pm36 °FClear.3 mph74%30.45 "Hg10 mi
5:00 pm38 °FClear.5 mph68%30.47 "Hg19 mi
2:00 pm41 °FPassing clouds.5 mph66%30.53 "Hg19 mi
1:00 pm40 °FPassing clouds.3 mph67%30.56 "Hg19 mi
11:00 am39 °FPassing clouds.1 mph69%30.62 "Hg9 mi
10:00 am38 °FPassing clouds.1 mph74%30.63 "Hg7 mi
9:00 am35 °FPartly sunny.2 mph82%30.63 "Hg9 mi
8:00 am34 °FPassing clouds.3 mph81%30.62 "Hg9 mi
6:00 am36 °FChilly.2 mph77%30.60 "HgN/A
5:00 am36 °FChilly.1 mph77%30.60 "HgN/A
3:00 am34 °FChilly.1 mph82%30.60 "HgN/A
2:00 am34 °FChilly.3 mph81%30.60 "HgN/A
Weather by CustomWeather, © 2020

See weather overview

Advertising